Regional Weather Roundup
Issued by NWS

Home | Current Version | Previous Version | Graphics & Text | Print | Product List | Glossary On
Versions: 1 2 3 4 5 6 7 8 9 10 11 12 13 14 15 16 17 18 19 20 21 22 23 24 25 26 27 28 29 30 31 32 33 34 35 36 37 38 39 40 41 42 43 44 45 46 47 48 49 50
000
ASUS43 KBIS 211102
RWRND

NORTH DAKOTA REGIONAL WEATHER ROUNDUP
NATIONAL WEATHER SERVICE BISMARCK ND
600 AM CDT THU SEP 21 2017

NOTE: "FAIR" INDICATES FEW OR NO CLOUDS BELOW 12,000 FEET WITH NO
SIGNIFICANT WEATHER AND/OR OBSTRUCTIONS TO VISIBILITY.


NDZ001>003-009>011-017-211200-
NORTHWEST NORTH DAKOTA

CITY           SKY/WX    TMP DP  RH WIND       PRES   REMARKS
WILLISTON      CLOUDY    48  42  80 NE3       29.64F
MINOT          CLOUDY    54  40  59 E3        29.63F
MINOT AFB      CLOUDY    52  41  65 CALM      29.63S
$$

NDZ018>021-031>035-040>046-211200-
SOUTHWEST NORTH DAKOTA

CITY           SKY/WX    TMP DP  RH WIND       PRES   REMARKS
BISMARCK       CLOUDY    57  45  64 SE12      29.68F
DICKINSON      CLOUDY    56  40  55 S7        29.63S
GARRISON         N/A     54  43  66 E6        29.65F
HETTINGER ARPT CLOUDY    59  38  45 SE10      29.68S
$$

NDZ004>008-012>016-024-026-027-054-211200-
NORTHEAST NORTH DAKOTA

CITY           SKY/WX    TMP DP  RH WIND       PRES   REMARKS
GRAND FORKS    PTCLDY    53  47  79 S12       29.81S
GRND FRKS AFB  MOCLDY    55  44  68 S14       29.80S
DEVILS LAKE    CLOUDY    55  44  66 SE8       29.74S
$$

NDZ022-023-025-028>030-036>039-047>053-211200-
SOUTHEAST NORTH DAKOTA

CITY           SKY/WX    TMP DP  RH WIND       PRES   REMARKS
FARGO          MOCLDY    57  48  72 SE13G18   29.85R
JAMESTOWN      CLOUDY    54  47  77 S14       29.77S
$$




USA.gov is the U.S. government's official web portal to all federal, state and local government web resources and services.